• In Uzbekistan
  • List of Countries
  • For 7 days
  • Water Temperature
  • Satellite Maps
  • Weather Map
  • Weather Widgets
  • user-avatar
    Login

    Hourly Weather Yulara

    Today, 24 January, Thursday

    Time Temperature Precipitation Wind Pressure Humidity
    00:00 +40°C° 0 mm 2 mps 712 mmHg 21%
    01:00 +39°C° 0 mm 2 mps 712 mmHg 21%
    02:00 +38°C° 0 mm 3 mps 712 mmHg 21%
    03:00 +37°C° 0 mm 4 mps 712 mmHg 21%
    04:00 +36°C° 0 mm 4 mps 712 mmHg 22%
    05:00 +35°C° 0 mm 4 mps 712 mmHg 22%
    06:00 +34°C° 0 mm 4 mps 712 mmHg 22%
    07:00 +38°C° 0 mm 6 mps 712 mmHg 19%
    08:00 +40°C° 0 mm 7 mps 713 mmHg 16%
    09:00 +44°C° 0 mm 8 mps 714 mmHg 13%
    10:00 +45°C° 0 mm 7 mps 713 mmHg 13%
    11:00 +46°C° 0 mm 6 mps 713 mmHg 12%
    12:00 +47°C° 0 mm 6 mps 713 mmHg 11%
    13:00 +47°C° 0 mm 5 mps 712 mmHg 11%
    14:00 +47°C° 0 mm 4 mps 712 mmHg 10%
    15:00 +47°C° 0 mm 4 mps 711 mmHg 11%
    16:00 +47°C° 0 mm 4 mps 711 mmHg 10%
    17:00 +46°C° 0 mm 3 mps 711 mmHg 10%
    18:00 +46°C° 0 mm 3 mps 711 mmHg 9%
    19:00 +44°C° 0 mm 4 mps 711 mmHg 10%
    20:00 +43°C° 0 mm 4 mps 711 mmHg 11%
    21:00 +41°C° 0 mm 4 mps 711 mmHg 11%
    22:00 +40°C° 0 mm 4 mps 711 mmHg 12%
    23:00 +39°C° 0 mm 5 mps 711 mmHg 14%

    Tomorrow, 25 January, Friday

    Time Temperature Precipitation Wind Pressure Humidity
    00:00 +37°C° 0 mm 5 mps 711 mmHg 15%
    01:00 +37°C° 0 mm 5 mps 711 mmHg 16%
    02:00 +36°C° 0 mm 5 mps 711 mmHg 17%
    03:00 +35°C° 0 mm 4 mps 711 mmHg 18%
    04:00 +35°C° 0 mm 4 mps 711 mmHg 20%
    05:00 +34°C° 0 mm 4 mps 711 mmHg 22%
    06:00 +33°C° 0 mm 4 mps 711 mmHg 25%
    07:00 +36°C° 0 mm 4 mps 712 mmHg 24%
    08:00 +39°C° 0 mm 5 mps 713 mmHg 24%
    09:00 +41°C° 0 mm 5 mps 713 mmHg 23%
    10:00 +42°C° 0 mm 5 mps 713 mmHg 21%
    11:00 +43°C° 0 mm 5 mps 713 mmHg 18%
    12:00 +45°C° 0 mm 4 mps 712 mmHg 15%
    13:00 +45°C° 0 mm 4 mps 712 mmHg 14%
    14:00 +47°C° 0 mm 4 mps 711 mmHg 13%
    15:00 +48°C° 0 mm 5 mps 711 mmHg 12%
    16:00 +47°C° 0 mm 5 mps 711 mmHg 13%
    17:00 +46°C° 0 mm 5 mps 711 mmHg 14%
    18:00 +46°C° 0 mm 6 mps 711 mmHg 15%
    19:00 +44°C° 0 mm 6 mps 711 mmHg 20%
    20:00 +41°C° 0 mm 6 mps 712 mmHg 26%
    21:00 +39°C° 0 mm 6 mps 712 mmHg 31%
    22:00 +39°C° 0 mm 5 mps 712 mmHg 32%
    23:00 +37°C° 0 mm 4 mps 713 mmHg 33%

    Day after tomorrow, 26 January, Saturday

    Time Temperature Precipitation Wind Pressure Humidity
    00:00 +36°C° 0 mm 2 mps 713 mmHg 35%
    01:00 +36°C° 0 mm 3 mps 713 mmHg 34%
    02:00 +36°C° 0 mm 4 mps 712 mmHg 34%
    03:00 +35°C° 0 mm 5 mps 712 mmHg 33%
    04:00 +34°C° 0 mm 5 mps 712 mmHg 34%
    05:00 +33°C° 0 mm 5 mps 713 mmHg 35%
    06:00 +33°C° 0 mm 5 mps 713 mmHg 36%
    07:00 +35°C° 0 mm 5 mps 713 mmHg 32%
    08:00 +37°C° 0 mm 4 mps 714 mmHg 28%
    09:00 +40°C° 0 mm 4 mps 714 mmHg 24%
    10:00 +41°C° 0 mm 4 mps 714 mmHg 22%
    11:00 +43°C° 0 mm 4 mps 714 mmHg 19%
    12:00 +44°C° 0 mm 4 mps 714 mmHg 17%
    13:00 +45°C° 0 mm 5 mps 713 mmHg 17%
    14:00 +45°C° 0 mm 5 mps 712 mmHg 17%
    15:00 +45°C° 0 mm 5 mps 712 mmHg 17%
    16:00 +44°C° 0 mm 6 mps 712 mmHg 19%
    17:00 +43°C° 0 mm 7 mps 712 mmHg 20%
    18:00 +41°C° 0 mm 8 mps 712 mmHg 22%
    19:00 +40°C° 0.2 mm 9 mps 712 mmHg 26%
    20:00 +38°C° 0.2 mm 11 mps 713 mmHg 30%
    21:00 +37°C° 0.2 mm 12 mps 713 mmHg 34%
    22:00 +36°C° 0 mm 11 mps 713 mmHg 37%
    23:00 +34°C° 0 mm 10 mps 714 mmHg 39%

    27 January, Sunday

    Time Temperature Precipitation Wind Pressure Humidity
    00:00 +33°C° 0 mm 9 mps 714 mmHg 41%
    01:00 +32°C° 0 mm 9 mps 714 mmHg 43%
    02:00 +31°C° 0 mm 9 mps 713 mmHg 44%
    03:00 +31°C° 0 mm 9 mps 713 mmHg 46%
    04:00 +29°C° 0 mm 9 mps 713 mmHg 45%
    05:00 +28°C° 0 mm 8 mps 714 mmHg 45%
    06:00 +28°C° 0 mm 8 mps 714 mmHg 45%
    07:00 +29°C° 0 mm 8 mps 715 mmHg 43%
    08:00 +31°C° 0 mm 8 mps 715 mmHg 41%
    09:00 +32°C° 0 mm 8 mps 716 mmHg 38%
    10:00 +34°C° 0 mm 8 mps 716 mmHg 35%
    11:00 +35°C° 0 mm 8 mps 716 mmHg 32%
    12:00 +38°C° 0 mm 9 mps 716 mmHg 29%
    13:00 +38°C° 0 mm 9 mps 715 mmHg 29%
    14:00 +39°C° 0 mm 9 mps 715 mmHg 28%
    15:00 +39°C° 0 mm 10 mps 714 mmHg 27%
    16:00 +38°C° 0 mm 10 mps 714 mmHg 29%
    17:00 +37°C° 0 mm 10 mps 714 mmHg 31%
    18:00 +36°C° 0 mm 10 mps 714 mmHg 32%
    19:00 +33°C° 0 mm 10 mps 715 mmHg 37%
    20:00 +32°C° 0 mm 10 mps 715 mmHg 41%
    21:00 +29°C° 0 mm 9 mps 716 mmHg 46%
    22:00 +29°C° 0 mm 9 mps 716 mmHg 47%
    23:00 +28°C° 0 mm 8 mps 716 mmHg 48%

    28 January, Monday

    Time Temperature Precipitation Wind Pressure Humidity
    00:00 +27°C° 0 mm 8 mps 716 mmHg 49%
    01:00 +27°C° 0 mm 7 mps 715 mmHg 50%
    02:00 +26°C° 0 mm 7 mps 715 mmHg 51%
    03:00 +24°C° 0 mm 7 mps 714 mmHg 52%
    04:00 +24°C° 0 mm 6 mps 714 mmHg 53%
    05:00 +25°C° 0 mm 5 mps 715 mmHg 54%
    06:00 +25°C° 0 mm 5 mps 715 mmHg 56%
    07:00 +26°C° 0 mm 5 mps 715 mmHg 52%
    08:00 +27°C° 0 mm 6 mps 716 mmHg 48%
    09:00 +29°C° 0 mm 6 mps 716 mmHg 45%
    10:00 +30°C° 0 mm 6 mps 716 mmHg 41%
    11:00 +33°C° 0 mm 6 mps 715 mmHg 37%
    12:00 +35°C° 0 mm 6 mps 715 mmHg 33%
    13:00 +36°C° 0 mm 5 mps 714 mmHg 31%
    14:00 +37°C° 0 mm 5 mps 714 mmHg 29%
    15:00 +39°C° 0 mm 5 mps 713 mmHg 27%
    16:00 +39°C° 0 mm 5 mps 713 mmHg 27%
    17:00 +39°C° 0 mm 5 mps 713 mmHg 27%
    18:00 +39°C° 0 mm 6 mps 713 mmHg 27%
    19:00 +38°C° 0 mm 6 mps 714 mmHg 29%
    20:00 +36°C° 0 mm 6 mps 714 mmHg 30%
    21:00 +36°C° 0 mm 6 mps 715 mmHg 31%
    22:00 +35°C° 0 mm 6 mps 715 mmHg 34%
    23:00 +33°C° 0 mm 6 mps 715 mmHg 37%

    29 January, Tuesday

    Time Temperature Precipitation Wind Pressure Humidity
    00:00 +32°C° 0 mm 6 mps 715 mmHg 40%
    01:00 +32°C° 0 mm 6 mps 714 mmHg 43%
    02:00 +30°C° 0 mm 5 mps 714 mmHg 46%
    03:00 +29°C° 0 mm 5 mps 713 mmHg 48%
    04:00 +29°C° 0 mm 5 mps 714 mmHg 49%
    05:00 +28°C° 0 mm 5 mps 714 mmHg 50%
    06:00 +28°C° 0 mm 4 mps 714 mmHg 51%
    07:00 +30°C° 0 mm 5 mps 714 mmHg 46%
    08:00 +33°C° 0 mm 6 mps 715 mmHg 41%
    09:00 +35°C° 0 mm 7 mps 715 mmHg 36%
    10:00 +36°C° 0 mm 6 mps 715 mmHg 32%
    11:00 +38°C° 0 mm 6 mps 714 mmHg 28%
    12:00 +40°C° 0 mm 5 mps 714 mmHg 24%
    13:00 +40°C° 0 mm 5 mps 713 mmHg 22%
    14:00 +41°C° 0 mm 5 mps 712 mmHg 21%
    15:00 +42°C° 0 mm 5 mps 712 mmHg 19%
    16:00 +41°C° 0 mm 6 mps 712 mmHg 21%
    17:00 +40°C° 0 mm 6 mps 712 mmHg 22%
    18:00 +40°C° 0 mm 7 mps 712 mmHg 23%
    19:00 +39°C° 0 mm 7 mps 712 mmHg 25%
    20:00 +38°C° 0 mm 7 mps 713 mmHg 27%
    21:00 +36°C° 0 mm 7 mps 713 mmHg 29%
    22:00 +35°C° 0 mm 6 mps 713 mmHg 31%
    23:00 +35°C° 0 mm 6 mps 713 mmHg 32%
    Show more